Home   Weather   Paradise   Past weeks

Flag for USA Past Weather in Paradise, Nevada, USA — Yesterday and Last 2 Weeks

59 °F


Feels Like: 59 °F
Forecast: 57 / 85 °F
Wind: No wind

Location: McCarran International Airport

Current Time: Oct 21, 2016 at 8:06:59 AM

Latest Report: Oct 21, 2016 at 6:56 AM

Visibility: 10 mi

Pressure: 30.03 "Hg (27.83 "Hg at 643m altitude)

Humidity: 16%

Dew Point: 13 °F

Location of ParadiseLocation

Past Weather in Paradise — Graph


Paradise Temperature Yesterday

Maximum temperature yesterday: 81 °F (at 3:56 PM)
Minimum temperature yesterday: 57 °F (at 6:56 AM)
Average temperature yesterday: 69 °F

High & Low Weather Summary for the Past Weeks

High93 °F (Oct 14, 1:56 PM)49% (Oct 17, 7:56 AM)30.23 "Hg (Oct 17, 7:56 AM)
Low57 °F (Oct 20, 6:56 AM)5% (Oct 18, 11:56 PM)29.65 "Hg (Oct 17, 3:56 AM)
Average75 °F18%29.91 "Hg
* Reported Oct 6 6:56 AM — Oct 21 6:56 AM, Paradise, Weather by CustomWeather, © 2016

Note: Actual official high and low records may vary slightly from our data, if they occured in-between our weather recording intervals... More about our weather records


Paradise Weather History for the Previous 24 Hours

Scroll right to see more
Time TempWeatherWind HumidityBarometerVisibility
6:56 AM
Fri, Oct 21
59 °FSunny.No wind16%30.03 "Hg10 mi
5:56 AM59 °FClear.5 mph17%30.02 "Hg10 mi
4:56 AM59 °FClear.No wind17%30.01 "Hg10 mi
3:56 AM60 °FClear.No wind14%30.01 "Hg10 mi
2:56 AM60 °FClear.6 mph14%30.01 "Hg10 mi
1:56 AM61 °FClear.3 mph14%30.02 "Hg10 mi
12:56 AM62 °FClear.5 mph14%30.02 "Hg10 mi
11:56 PM
Thu, Oct 20
64 °FClear.No wind13%30.04 "Hg10 mi
10:56 PM65 °FClear.3 mph14%30.05 "Hg10 mi
9:56 PM67 °FClear.5 mph13%30.05 "Hg10 mi
8:56 PM71 °FPassing clouds.3 mph12%30.05 "Hg10 mi
7:56 PM74 °FPassing clouds.3 mph12%30.05 "Hg10 mi
6:56 PM76 °FPassing clouds.5 mph10%30.05 "Hg10 mi
5:56 PM79 °FPassing clouds.6 mph8%30.04 "Hg10 mi
4:56 PM80 °FPassing clouds.6 mph8%30.05 "Hg10 mi
3:56 PM81 °FPassing clouds.7 mph7%30.07 "Hg10 mi
2:56 PM80 °FPassing clouds.No wind8%30.08 "Hg10 mi
1:56 PM79 °FPassing clouds.7 mph9%30.11 "Hg10 mi
12:56 PM77 °FSunny.10 mph10%30.14 "Hg10 mi
11:56 AM74 °FSunny.6 mph12%30.18 "Hg10 mi
10:56 AM72 °FSunny.3 mph13%30.21 "Hg10 mi
9:56 AM68 °FSunny.3 mph15%30.22 "Hg10 mi
8:56 AM63 °FSunny.3 mph17%30.23 "Hg10 mi
Weather by CustomWeather, © 2016

See weather overviewHow to use our weather pages